Location: Lake of the Woods (North-East)
(49.6672°N, 94.8656°W)
Time: 11:56:58
(UTC-06:00)

ISS - All Passes

Search period start: 09 February 2016 00:00
Search period end: 19 February 2016 00:00
Orbit: 399 x 408 km, 51.6° (Epoch: 09 February)

Date Brightness Start Highest point End Pass type
(mag) Time Alt. Az. Time Alt. Az. Time Alt. Az.
09 Feb - 16:54:04 10° SW 16:57:06 38° SSE 17:00:09 10° E daylight
09 Feb - 18:30:12 10° W 18:33:27 70° NNW 18:36:42 10° ENE visible
09 Feb - 20:06:52 10° WNW 20:10:06 64° N 20:13:20 10° E visible
09 Feb - 21:43:23 10° WNW 21:46:32 47° SSW 21:49:40 10° SE night (unlit)
10 Feb - 16:01:55 10° SSW 16:04:37 24° SE 16:07:19 10° E daylight
10 Feb - 17:37:32 10° WSW 17:40:48 88° NNW 17:44:03 10° ENE daylight
10 Feb - 19:14:11 10° WNW 19:17:25 58° N 19:20:38 10° E visible
10 Feb - 20:50:43 10° WNW 20:53:57 71° SSW 20:57:11 10° ESE visible
10 Feb - 22:27:49 10° W 22:29:58 17° SW 22:32:07 10° S night (unlit)
11 Feb - 15:10:13 10° S 15:12:11 15° SE 15:14:10 10° E daylight
11 Feb - 16:44:57 10° WSW 16:48:11 66° SSE 16:51:25 10° ENE daylight
11 Feb - 18:21:29 10° W 18:24:42 59° N 18:27:55 10° ENE visible
11 Feb - 19:58:04 10° WNW 20:01:19 84° NNE 20:04:35 10° ESE visible
11 Feb - 21:34:45 10° W 21:37:32 26° SW 21:40:18 10° SSE visible
12 Feb - 15:52:29 10° SW 15:55:35 43° SSE 15:58:42 10° ENE daylight
12 Feb - 17:28:45 10° W 17:31:59 66° N 17:35:14 10° ENE daylight
12 Feb - 19:05:23 10° WNW 19:08:38 67° N 19:11:53 10° E visible
12 Feb - 20:41:56 10° W 20:45:01 41° SSW 20:48:06 10° SE visible
13 Feb - 15:00:13 10° SSW 15:03:03 28° SE 15:05:53 10° E daylight
13 Feb - 16:36:02 10° WSW 16:39:17 82° NNW 16:42:33 10° ENE daylight
13 Feb - 18:12:41 10° WNW 18:15:55 59° N 18:19:08 10° E visible
13 Feb - 19:49:12 10° WNW 19:52:25 63° SSW 19:55:38 10° ESE visible
13 Feb - 21:26:33 10° WSW 21:28:23 14° SW 21:30:12 10° S visible
14 Feb - 14:08:19 10° S 14:10:34 18° SE 14:12:50 10° E daylight
14 Feb - 15:43:21 10° WSW 15:46:37 74° SSE 15:49:51 10° ENE daylight
14 Feb - 17:19:56 10° W 17:23:10 58° N 17:26:24 10° E daylight
14 Feb - 18:56:30 10° WNW 18:59:46 89° S 19:03:01 10° ESE visible
14 Feb - 20:33:17 10° W 20:35:55 23° SW 20:38:32 10° SSE visible
15 Feb - 13:17:23 10° SSE 13:18:08 11° SE 13:18:54 10° ESE daylight
15 Feb - 14:50:48 10° SW 14:53:58 49° SSE 14:57:08 10° ENE daylight
15 Feb - 16:27:10 10° W 16:30:25 63° N 16:33:38 10° ENE daylight
15 Feb - 18:03:48 10° WNW 18:07:03 72° NNE 18:10:18 10° E visible
15 Feb - 19:40:22 10° W 19:43:23 36° SSW 19:46:23 10° SE visible
16 Feb - 13:58:26 10° SSW 14:01:22 32° SSE 14:04:19 10° E daylight
16 Feb - 15:34:24 10° W 15:37:40 76° NNW 15:40:56 10° ENE daylight
16 Feb - 17:11:03 10° WNW 17:14:18 61° N 17:17:31 10° E daylight
16 Feb - 18:47:34 10° WNW 18:50:46 55° SSW 18:53:57 10° SE visible
16 Feb - 20:25:16 10° WSW 20:26:39 12° SW 20:28:01 10° SSW visible
17 Feb - 13:06:21 10° SSW 13:08:49 20° SE 13:11:19 10° E daylight
17 Feb - 14:41:40 10° WSW 14:44:56 82° SSE 14:48:12 10° ENE daylight
17 Feb - 16:18:17 10° W 16:21:31 58° N 16:24:44 10° E daylight
17 Feb - 17:54:49 10° WNW 17:58:05 81° SSW 18:01:20 10° ESE daylight
17 Feb - 19:31:44 10° W 19:34:10 20° SW 19:36:37 10° S visible
18 Feb - 12:14:52 10° SSE 12:16:20 13° SE 12:17:49 10° ESE daylight
18 Feb - 13:49:02 10° SW 13:52:14 56° SSE 13:55:27 10° ENE daylight
18 Feb - 15:25:28 10° W 15:28:43 61° N 15:31:57 10° ENE daylight
18 Feb - 17:02:05 10° WNW 17:05:21 77° NNE 17:08:36 10° E daylight
18 Feb - 18:38:42 10° W 18:41:37 31° SSW 18:44:33 10° SSE visible
